owner,sensor,date,latitude,longitude,air_pressure(mBar),qcFlag 
WAVCIS,ioos:station:WAVCIS:CSI06:1,2016-04-01T00:00:00Z,28.8667,-90.4833,1007.91,11111222 
WAVCIS,ioos:station:WAVCIS:CSI06:1,2016-04-01T01:00:00Z,28.8667,-90.4833,1008.32,11111222 
WAVCIS,ioos:station:WAVCIS:CSI06:1,2016-04-01T02:00:00Z,28.8667,-90.4833,1008.53,11111222 
WAVCIS,ioos:station:WAVCIS:CSI06:1,2016-04-01T03:00:00Z,28.8667,-90.4833,1009.27,11111222 
WAVCIS,ioos:station:WAVCIS:CSI06:1,2016-04-01T04:00:00Z,28.8667,-90.4833,1009.26,11111222 
WAVCIS,ioos:station:WAVCIS:CSI06:1,2016-04-01T05:00:00Z,28.8667,-90.4833,1008.23,11111222 
WAVCIS,ioos:station:WAVCIS:CSI06:1,2016-04-01T06:00:00Z,28.8667,-90.4833,1008.54,11111222 
WAVCIS,ioos:station:WAVCIS:CSI06:1,2016-04-01T07:00:00Z,28.8667,-90.4833,1008.31,11111222 
WAVCIS,ioos:station:WAVCIS:CSI06:1,2016-04-01T08:00:00Z,28.8667,-90.4833,1008.63,11111222 
WAVCIS,ioos:station:WAVCIS:CSI06:1,2016-04-01T09:00:00Z,28.8667,-90.4833,1009.15,11111222 
WAVCIS,ioos:station:WAVCIS:CSI06:1,2016-04-01T10:00:00Z,28.8667,-90.4833,1008.91,11111222 
WAVCIS,ioos:station:WAVCIS:CSI06:1,2016-04-01T11:00:00Z,28.8667,-90.4833,1009.35,11111222 
WAVCIS,ioos:station:WAVCIS:CSI06:1,2016-04-01T12:00:00Z,28.8667,-90.4833,1009.46,11111222 
WAVCIS,ioos:station:WAVCIS:CSI06:1,2016-04-01T13:00:00Z,28.8667,-90.4833,1009.51,11111222 
WAVCIS,ioos:station:WAVCIS:CSI06:1,2016-04-01T14:00:00Z,28.8667,-90.4833,1006.882,11111222 
WAVCIS,ioos:station:WAVCIS:CSI06:1,2016-04-01T15:00:00Z,28.8667,-90.4833,1009.72,11111222 
WAVCIS,ioos:station:WAVCIS:CSI06:1,2016-04-01T16:00:00Z,28.8667,-90.4833,1007.8,11111222 
WAVCIS,ioos:station:WAVCIS:CSI06:1,2016-04-01T17:00:00Z,28.8667,-90.4833,1008.34,11111222 
WAVCIS,ioos:station:WAVCIS:CSI06:1,2016-04-01T18:00:00Z,28.8667,-90.4833,1009.8,11111222 
WAVCIS,ioos:station:WAVCIS:CSI06:1,2016-04-01T19:00:00Z,28.8667,-90.4833,1008.86,11111222 
WAVCIS,ioos:station:WAVCIS:CSI06:1,2016-04-01T20:00:00Z,28.8667,-90.4833,1008.51,11111222 
WAVCIS,ioos:station:WAVCIS:CSI06:1,2016-04-01T21:00:00Z,28.8667,-90.4833,1006.959,11111222 
WAVCIS,ioos:station:WAVCIS:CSI06:1,2016-04-01T22:00:00Z,28.8667,-90.4833,1005.781,11111222 
WAVCIS,ioos:station:WAVCIS:CSI06:1,2016-04-01T23:00:00Z,28.8667,-90.4833,1007.051,11111222 
WAVCIS,ioos:station:WAVCIS:CSI06:1,2016-04-02T00:00:00Z,28.8667,-90.4833,1008.08,11111222 
WAVCIS,ioos:station:WAVCIS:CSI06:1,2016-04-02T01:00:00Z,28.8667,-90.4833,1009.3,11111222 
WAVCIS,ioos:station:WAVCIS:CSI06:1,2016-04-02T02:00:00Z,28.8667,-90.4833,1011.07,11111222 
WAVCIS,ioos:station:WAVCIS:CSI06:1,2016-04-02T03:00:00Z,28.8667,-90.4833,1011.94,11111222 
WAVCIS,ioos:station:WAVCIS:CSI06:1,2016-04-02T04:00:00Z,28.8667,-90.4833,1013.34,11111222 
WAVCIS,ioos:station:WAVCIS:CSI06:1,2016-04-02T05:00:00Z,28.8667,-90.4833,1013.33,11111222 
WAVCIS,ioos:station:WAVCIS:CSI06:1,2016-04-02T06:00:00Z,28.8667,-90.4833,1013.04,11111222 
WAVCIS,ioos:station:WAVCIS:CSI06:1,2016-04-02T07:00:00Z,28.8667,-90.4833,1013.1,11111222 
WAVCIS,ioos:station:WAVCIS:CSI06:1,2016-04-02T08:00:00Z,28.8667,-90.4833,1013.71,11111222 
WAVCIS,ioos:station:WAVCIS:CSI06:1,2016-04-02T09:00:00Z,28.8667,-90.4833,1013.42,11111222 
WAVCIS,ioos:station:WAVCIS:CSI06:1,2016-04-02T10:00:00Z,28.8667,-90.4833,1014.86,11111222 
WAVCIS,ioos:station:WAVCIS:CSI06:1,2016-04-02T11:00:00Z,28.8667,-90.4833,1016.35,11111222 
WAVCIS,ioos:station:WAVCIS:CSI06:1,2016-04-02T12:00:00Z,28.8667,-90.4833,1017.85,11111222 
WAVCIS,ioos:station:WAVCIS:CSI06:1,2016-04-02T13:00:00Z,28.8667,-90.4833,1018.53,11111222 
WAVCIS,ioos:station:WAVCIS:CSI06:1,2016-04-02T14:00:00Z,28.8667,-90.4833,1019.04,11111222 
WAVCIS,ioos:station:WAVCIS:CSI06:1,2016-04-02T15:00:00Z,28.8667,-90.4833,1020.26,11111222 
WAVCIS,ioos:station:WAVCIS:CSI06:1,2016-04-02T16:00:00Z,28.8667,-90.4833,1021.19,11111222 
WAVCIS,ioos:station:WAVCIS:CSI06:1,2016-04-02T17:00:00Z,28.8667,-90.4833,1020.51,11111222 
WAVCIS,ioos:station:WAVCIS:CSI06:1,2016-04-02T18:00:00Z,28.8667,-90.4833,1020.07,11111222 
WAVCIS,ioos:station:WAVCIS:CSI06:1,2016-04-02T19:00:00Z,28.8667,-90.4833,1019.24,11111222 
WAVCIS,ioos:station:WAVCIS:CSI06:1,2016-04-02T20:00:00Z,28.8667,-90.4833,1018.79,11111222 
WAVCIS,ioos:station:WAVCIS:CSI06:1,2016-04-02T21:00:00Z,28.8667,-90.4833,1018.2,11111222 
WAVCIS,ioos:station:WAVCIS:CSI06:1,2016-04-02T22:00:00Z,28.8667,-90.4833,1018.24,11111222 
WAVCIS,ioos:station:WAVCIS:CSI06:1,2016-04-02T23:00:00Z,28.8667,-90.4833,1018.24,11111222 
WAVCIS,ioos:station:WAVCIS:CSI06:1,2016-04-03T00:00:00Z,28.8667,-90.4833,1018.58,11111222 
WAVCIS,ioos:station:WAVCIS:CSI06:1,2016-04-03T01:00:00Z,28.8667,-90.4833,1019.38,11111222 
WAVCIS,ioos:station:WAVCIS:CSI06:1,2016-04-03T02:00:00Z,28.8667,-90.4833,1020.22,11111222 
WAVCIS,ioos:station:WAVCIS:CSI06:1,2016-04-03T03:00:00Z,28.8667,-90.4833,1021.27,11111222 
WAVCIS,ioos:station:WAVCIS:CSI06:1,2016-04-03T04:00:00Z,28.8667,-90.4833,1021.57,11111222 
WAVCIS,ioos:station:WAVCIS:CSI06:1,2016-04-03T05:00:00Z,28.8667,-90.4833,1021.66,11111222 
WAVCIS,ioos:station:WAVCIS:CSI06:1,2016-04-03T06:00:00Z,28.8667,-90.4833,1021.84,11111222 
WAVCIS,ioos:station:WAVCIS:CSI06:1,2016-04-03T07:00:00Z,28.8667,-90.4833,1022.03,11111222 
WAVCIS,ioos:station:WAVCIS:CSI06:1,2016-04-03T08:00:00Z,28.8667,-90.4833,1021.69,11111222 
WAVCIS,ioos:station:WAVCIS:CSI06:1,2016-04-03T09:00:00Z,28.8667,-90.4833,1021.75,11111222 
WAVCIS,ioos:station:WAVCIS:CSI06:1,2016-04-03T10:00:00Z,28.8667,-90.4833,1021.59,11111222 
WAVCIS,ioos:station:WAVCIS:CSI06:1,2016-04-03T11:00:00Z,28.8667,-90.4833,1021.85,11111222 
WAVCIS,ioos:station:WAVCIS:CSI06:1,2016-04-03T12:00:00Z,28.8667,-90.4833,1022.28,11111222 
WAVCIS,ioos:station:WAVCIS:CSI06:1,2016-04-03T13:00:00Z,28.8667,-90.4833,1022.87,11111222 
WAVCIS,ioos:station:WAVCIS:CSI06:1,2016-04-03T14:00:00Z,28.8667,-90.4833,1023.62,11111222 
WAVCIS,ioos:station:WAVCIS:CSI06:1,2016-04-03T15:00:00Z,28.8667,-90.4833,1024.29,11111222 
WAVCIS,ioos:station:WAVCIS:CSI06:1,2016-04-03T16:00:00Z,28.8667,-90.4833,1024.64,11111222 
WAVCIS,ioos:station:WAVCIS:CSI06:1,2016-04-03T17:00:00Z,28.8667,-90.4833,1024.59,11111222 
WAVCIS,ioos:station:WAVCIS:CSI06:1,2016-04-03T18:00:00Z,28.8667,-90.4833,1023.8,11111222 
WAVCIS,ioos:station:WAVCIS:CSI06:1,2016-04-03T19:00:00Z,28.8667,-90.4833,1023.21,11111222 
WAVCIS,ioos:station:WAVCIS:CSI06:1,2016-04-03T20:00:00Z,28.8667,-90.4833,1022.21,11111222 
WAVCIS,ioos:station:WAVCIS:CSI06:1,2016-04-03T21:00:00Z,28.8667,-90.4833,1021.8,11111222 
WAVCIS,ioos:station:WAVCIS:CSI06:1,2016-04-03T22:00:00Z,28.8667,-90.4833,1021.46,11111222 
WAVCIS,ioos:station:WAVCIS:CSI06:1,2016-04-03T23:00:00Z,28.8667,-90.4833,1021.37,11111222 
WAVCIS,ioos:station:WAVCIS:CSI06:1,2016-04-04T00:00:00Z,28.8667,-90.4833,1021.36,11111222 
WAVCIS,ioos:station:WAVCIS:CSI06:1,2016-04-04T01:00:00Z,28.8667,-90.4833,1021.42,11111222 
WAVCIS,ioos:station:WAVCIS:CSI06:1,2016-04-04T02:00:00Z,28.8667,-90.4833,1022.21,11111222 
WAVCIS,ioos:station:WAVCIS:CSI06:1,2016-04-04T03:00:00Z,28.8667,-90.4833,1022.83,11111222 
WAVCIS,ioos:station:WAVCIS:CSI06:1,2016-04-04T04:00:00Z,28.8667,-90.4833,1022.86,11111222 
WAVCIS,ioos:station:WAVCIS:CSI06:1,2016-04-04T05:00:00Z,28.8667,-90.4833,1022.92,11111222 
WAVCIS,ioos:station:WAVCIS:CSI06:1,2016-04-04T06:00:00Z,28.8667,-90.4833,1022.53,11111222 
WAVCIS,ioos:station:WAVCIS:CSI06:1,2016-04-04T07:00:00Z,28.8667,-90.4833,1022.01,11111222 
WAVCIS,ioos:station:WAVCIS:CSI06:1,2016-04-04T08:00:00Z,28.8667,-90.4833,1021.73,11111222 
WAVCIS,ioos:station:WAVCIS:CSI06:1,2016-04-04T09:00:00Z,28.8667,-90.4833,1021.49,11111222 
WAVCIS,ioos:station:WAVCIS:CSI06:1,2016-04-04T10:00:00Z,28.8667,-90.4833,1021.49,11111222 
WAVCIS,ioos:station:WAVCIS:CSI06:1,2016-04-04T11:00:00Z,28.8667,-90.4833,1021.78,11111222 
WAVCIS,ioos:station:WAVCIS:CSI06:1,2016-04-04T12:00:00Z,28.8667,-90.4833,1022.55,11111222 
WAVCIS,ioos:station:WAVCIS:CSI06:1,2016-04-04T13:00:00Z,28.8667,-90.4833,1023.15,11111222 
WAVCIS,ioos:station:WAVCIS:CSI06:1,2016-04-04T14:00:00Z,28.8667,-90.4833,1023.77,11111222 
WAVCIS,ioos:station:WAVCIS:CSI06:1,2016-04-04T15:00:00Z,28.8667,-90.4833,1024.11,11111222 
WAVCIS,ioos:station:WAVCIS:CSI06:1,2016-04-04T16:00:00Z,28.8667,-90.4833,1024.43,11111222 
WAVCIS,ioos:station:WAVCIS:CSI06:1,2016-04-04T17:00:00Z,28.8667,-90.4833,1024.37,11111222 
WAVCIS,ioos:station:WAVCIS:CSI06:1,2016-04-04T18:00:00Z,28.8667,-90.4833,1023.7,11111222 
WAVCIS,ioos:station:WAVCIS:CSI06:1,2016-04-04T19:00:00Z,28.8667,-90.4833,1023.35,11111222 
WAVCIS,ioos:station:WAVCIS:CSI06:1,2016-04-04T20:00:00Z,28.8667,-90.4833,1022.8,11111222 
WAVCIS,ioos:station:WAVCIS:CSI06:1,2016-04-04T21:00:00Z,28.8667,-90.4833,1022.05,11111222 
WAVCIS,ioos:station:WAVCIS:CSI06:1,2016-04-04T22:00:00Z,28.8667,-90.4833,1021.77,11111222 
WAVCIS,ioos:station:WAVCIS:CSI06:1,2016-04-04T23:00:00Z,28.8667,-90.4833,1021.89,11111222 
WAVCIS,ioos:station:WAVCIS:CSI06:1,2016-04-05T00:00:00Z,28.8667,-90.4833,1022.26,11111222 
WAVCIS,ioos:station:WAVCIS:CSI06:1,2016-04-05T01:00:00Z,28.8667,-90.4833,1022.39,11111222 
WAVCIS,ioos:station:WAVCIS:CSI06:1,2016-04-05T02:00:00Z,28.8667,-90.4833,1022.52,11111222 
WAVCIS,ioos:station:WAVCIS:CSI06:1,2016-04-05T03:00:00Z,28.8667,-90.4833,1023.01,11111222 
WAVCIS,ioos:station:WAVCIS:CSI06:1,2016-04-05T04:00:00Z,28.8667,-90.4833,1023.09,11111222 
WAVCIS,ioos:station:WAVCIS:CSI06:1,2016-04-05T05:00:00Z,28.8667,-90.4833,1023.06,11111222 
WAVCIS,ioos:station:WAVCIS:CSI06:1,2016-04-05T06:00:00Z,28.8667,-90.4833,1022.59,11111222 
WAVCIS,ioos:station:WAVCIS:CSI06:1,2016-04-05T07:00:00Z,28.8667,-90.4833,1022.45,11111222 
WAVCIS,ioos:station:WAVCIS:CSI06:1,2016-04-05T08:00:00Z,28.8667,-90.4833,1022.23,11111222 
WAVCIS,ioos:station:WAVCIS:CSI06:1,2016-04-05T09:00:00Z,28.8667,-90.4833,1022.52,11111222 
WAVCIS,ioos:station:WAVCIS:CSI06:1,2016-04-05T10:00:00Z,28.8667,-90.4833,1022.67,11111222 
WAVCIS,ioos:station:WAVCIS:CSI06:1,2016-04-05T11:00:00Z,28.8667,-90.4833,1023.17,11111222 
WAVCIS,ioos:station:WAVCIS:CSI06:1,2016-04-05T12:00:00Z,28.8667,-90.4833,1023.76,11111222 
WAVCIS,ioos:station:WAVCIS:CSI06:1,2016-04-05T13:00:00Z,28.8667,-90.4833,1024.21,11111222 
WAVCIS,ioos:station:WAVCIS:CSI06:1,2016-04-05T14:00:00Z,28.8667,-90.4833,1024.44,11111222 
WAVCIS,ioos:station:WAVCIS:CSI06:1,2016-04-05T15:00:00Z,28.8667,-90.4833,1024.72,11111222 
WAVCIS,ioos:station:WAVCIS:CSI06:1,2016-04-05T16:00:00Z,28.8667,-90.4833,1025.33,11111222 
WAVCIS,ioos:station:WAVCIS:CSI06:1,2016-04-05T17:00:00Z,28.8667,-90.4833,1025.24,11111222 
WAVCIS,ioos:station:WAVCIS:CSI06:1,2016-04-05T18:00:00Z,28.8667,-90.4833,1024.55,11111222 
WAVCIS,ioos:station:WAVCIS:CSI06:1,2016-04-05T19:00:00Z,28.8667,-90.4833,1023.8,11111222 
WAVCIS,ioos:station:WAVCIS:CSI06:1,2016-04-05T20:00:00Z,28.8667,-90.4833,1023.07,11111222 
WAVCIS,ioos:station:WAVCIS:CSI06:1,2016-04-05T21:00:00Z,28.8667,-90.4833,1022.7,11111222 
WAVCIS,ioos:station:WAVCIS:CSI06:1,2016-04-05T22:00:00Z,28.8667,-90.4833,1022.21,11111222 
WAVCIS,ioos:station:WAVCIS:CSI06:1,2016-04-05T23:00:00Z,28.8667,-90.4833,1021.92,11111222 
WAVCIS,ioos:station:WAVCIS:CSI06:1,2016-04-06T00:00:00Z,28.8667,-90.4833,1021.34,11111222 
WAVCIS,ioos:station:WAVCIS:CSI06:1,2016-04-06T01:00:00Z,28.8667,-90.4833,1021.22,11111222 
WAVCIS,ioos:station:WAVCIS:CSI06:1,2016-04-06T02:00:00Z,28.8667,-90.4833,1021.68,11111222 
WAVCIS,ioos:station:WAVCIS:CSI06:1,2016-04-06T03:00:00Z,28.8667,-90.4833,1021.55,11111222 
WAVCIS,ioos:station:WAVCIS:CSI06:1,2016-04-06T04:00:00Z,28.8667,-90.4833,1021.56,11111222 
WAVCIS,ioos:station:WAVCIS:CSI06:1,2016-04-06T05:00:00Z,28.8667,-90.4833,1021.46,11111222 
WAVCIS,ioos:station:WAVCIS:CSI06:1,2016-04-06T06:00:00Z,28.8667,-90.4833,1021.28,11111222 
WAVCIS,ioos:station:WAVCIS:CSI06:1,2016-04-06T07:00:00Z,28.8667,-90.4833,1020.1,11111222 
WAVCIS,ioos:station:WAVCIS:CSI06:1,2016-04-06T08:00:00Z,28.8667,-90.4833,1019.99,11111222 
WAVCIS,ioos:station:WAVCIS:CSI06:1,2016-04-06T09:00:00Z,28.8667,-90.4833,1019.21,11111222 
WAVCIS,ioos:station:WAVCIS:CSI06:1,2016-04-06T10:00:00Z,28.8667,-90.4833,1018.94,11111222 
WAVCIS,ioos:station:WAVCIS:CSI06:1,2016-04-06T11:00:00Z,28.8667,-90.4833,1018.93,11111222 
WAVCIS,ioos:station:WAVCIS:CSI06:1,2016-04-06T12:00:00Z,28.8667,-90.4833,1018.92,11111222 
WAVCIS,ioos:station:WAVCIS:CSI06:1,2016-04-06T13:00:00Z,28.8667,-90.4833,1019.01,11111222 
WAVCIS,ioos:station:WAVCIS:CSI06:1,2016-04-06T14:00:00Z,28.8667,-90.4833,1019.07,11111222 
WAVCIS,ioos:station:WAVCIS:CSI06:1,2016-04-06T15:00:00Z,28.8667,-90.4833,9999.0,11144222 
WAVCIS,ioos:station:WAVCIS:CSI06:1,2016-04-06T16:00:00Z,28.8667,-90.4833,9999.0,11144222 
WAVCIS,ioos:station:WAVCIS:CSI06:1,2016-04-06T17:00:00Z,28.8667,-90.4833,9999.0,11144222 
WAVCIS,ioos:station:WAVCIS:CSI06:1,2016-04-06T18:00:00Z,28.8667,-90.4833,1020.5,11111222 
WAVCIS,ioos:station:WAVCIS:CSI06:1,2016-04-06T19:00:00Z,28.8667,-90.4833,1020.07,11111222 
WAVCIS,ioos:station:WAVCIS:CSI06:1,2016-04-06T20:00:00Z,28.8667,-90.4833,1018.87,11111222 
WAVCIS,ioos:station:WAVCIS:CSI06:1,2016-04-06T21:00:00Z,28.8667,-90.4833,1017.29,11111222 
WAVCIS,ioos:station:WAVCIS:CSI06:1,2016-04-06T22:00:00Z,28.8667,-90.4833,1016.98,11111222 
WAVCIS,ioos:station:WAVCIS:CSI06:1,2016-04-06T23:00:00Z,28.8667,-90.4833,1016.5,11111222 
WAVCIS,ioos:station:WAVCIS:CSI06:1,2016-04-07T00:00:00Z,28.8667,-90.4833,1016.3,11111222 
WAVCIS,ioos:station:WAVCIS:CSI06:1,2016-04-07T01:00:00Z,28.8667,-90.4833,1016.11,11111222 
WAVCIS,ioos:station:WAVCIS:CSI06:1,2016-04-07T02:00:00Z,28.8667,-90.4833,1016.24,11111222 
WAVCIS,ioos:station:WAVCIS:CSI06:1,2016-04-07T03:00:00Z,28.8667,-90.4833,1016.7,11111222 
WAVCIS,ioos:station:WAVCIS:CSI06:1,2016-04-07T04:00:00Z,28.8667,-90.4833,1016.66,11111222 
WAVCIS,ioos:station:WAVCIS:CSI06:1,2016-04-07T05:00:00Z,28.8667,-90.4833,1016.81,11111222 
WAVCIS,ioos:station:WAVCIS:CSI06:1,2016-04-07T06:00:00Z,28.8667,-90.4833,1017.03,11111222 
WAVCIS,ioos:station:WAVCIS:CSI06:1,2016-04-07T07:00:00Z,28.8667,-90.4833,1016.47,11111222 
WAVCIS,ioos:station:WAVCIS:CSI06:1,2016-04-07T08:00:00Z,28.8667,-90.4833,1015.91,11111222 
WAVCIS,ioos:station:WAVCIS:CSI06:1,2016-04-07T09:00:00Z,28.8667,-90.4833,1015.59,11111222 
WAVCIS,ioos:station:WAVCIS:CSI06:1,2016-04-07T10:00:00Z,28.8667,-90.4833,1015.81,11111222 
WAVCIS,ioos:station:WAVCIS:CSI06:1,2016-04-07T11:00:00Z,28.8667,-90.4833,1015.94,11111222 
WAVCIS,ioos:station:WAVCIS:CSI06:1,2016-04-07T12:00:00Z,28.8667,-90.4833,1016.26,11111222 
WAVCIS,ioos:station:WAVCIS:CSI06:1,2016-04-07T13:00:00Z,28.8667,-90.4833,1016.76,11111222 
WAVCIS,ioos:station:WAVCIS:CSI06:1,2016-04-07T14:00:00Z,28.8667,-90.4833,1017.31,11111222 
WAVCIS,ioos:station:WAVCIS:CSI06:1,2016-04-07T15:00:00Z,28.8667,-90.4833,1017.52,11111222 
WAVCIS,ioos:station:WAVCIS:CSI06:1,2016-04-07T16:00:00Z,28.8667,-90.4833,1017.39,11111222 
WAVCIS,ioos:station:WAVCIS:CSI06:1,2016-04-07T17:00:00Z,28.8667,-90.4833,1017.05,11111222 
WAVCIS,ioos:station:WAVCIS:CSI06:1,2016-04-07T18:00:00Z,28.8667,-90.4833,1016.82,11111222 
WAVCIS,ioos:station:WAVCIS:CSI06:1,2016-04-07T19:00:00Z,28.8667,-90.4833,1016.46,11111222 
WAVCIS,ioos:station:WAVCIS:CSI06:1,2016-04-07T20:00:00Z,28.8667,-90.4833,1015.98,11111222 
WAVCIS,ioos:station:WAVCIS:CSI06:1,2016-04-07T21:00:00Z,28.8667,-90.4833,1015.55,11111222 
WAVCIS,ioos:station:WAVCIS:CSI06:1,2016-04-07T22:00:00Z,28.8667,-90.4833,1015.37,11111222 
WAVCIS,ioos:station:WAVCIS:CSI06:1,2016-04-07T23:00:00Z,28.8667,-90.4833,1015.36,11111222 
WAVCIS,ioos:station:WAVCIS:CSI06:1,2016-04-08T00:00:00Z,28.8667,-90.4833,1015.53,11111222 
WAVCIS,ioos:station:WAVCIS:CSI06:1,2016-04-08T01:00:00Z,28.8667,-90.4833,1015.69,11111222 
WAVCIS,ioos:station:WAVCIS:CSI06:1,2016-04-08T02:00:00Z,28.8667,-90.4833,1016.1,11111222 
WAVCIS,ioos:station:WAVCIS:CSI06:1,2016-04-08T03:00:00Z,28.8667,-90.4833,1016.68,11111222 
WAVCIS,ioos:station:WAVCIS:CSI06:1,2016-04-08T04:00:00Z,28.8667,-90.4833,1016.89,11111222 
WAVCIS,ioos:station:WAVCIS:CSI06:1,2016-04-08T05:00:00Z,28.8667,-90.4833,1016.75,11111222 
WAVCIS,ioos:station:WAVCIS:CSI06:1,2016-04-08T06:00:00Z,28.8667,-90.4833,1016.76,11111222 
WAVCIS,ioos:station:WAVCIS:CSI06:1,2016-04-08T07:00:00Z,28.8667,-90.4833,1016.34,11111222 
WAVCIS,ioos:station:WAVCIS:CSI06:1,2016-04-08T08:00:00Z,28.8667,-90.4833,1015.9,11111222 
WAVCIS,ioos:station:WAVCIS:CSI06:1,2016-04-08T09:00:00Z,28.8667,-90.4833,1015.77,11111222 
WAVCIS,ioos:station:WAVCIS:CSI06:1,2016-04-08T10:00:00Z,28.8667,-90.4833,1015.82,11111222 
WAVCIS,ioos:station:WAVCIS:CSI06:1,2016-04-08T11:00:00Z,28.8667,-90.4833,1016.61,11111222 
WAVCIS,ioos:station:WAVCIS:CSI06:1,2016-04-08T12:00:00Z,28.8667,-90.4833,1017.7,11111222 
WAVCIS,ioos:station:WAVCIS:CSI06:1,2016-04-08T13:00:00Z,28.8667,-90.4833,1018.16,11111222 
WAVCIS,ioos:station:WAVCIS:CSI06:1,2016-04-08T14:00:00Z,28.8667,-90.4833,1018.67,11111222 
WAVCIS,ioos:station:WAVCIS:CSI06:1,2016-04-08T15:00:00Z,28.8667,-90.4833,1019.6,11111222 
WAVCIS,ioos:station:WAVCIS:CSI06:1,2016-04-08T16:00:00Z,28.8667,-90.4833,1020.59,11111222 
WAVCIS,ioos:station:WAVCIS:CSI06:1,2016-04-08T17:00:00Z,28.8667,-90.4833,1020.57,11111222 
WAVCIS,ioos:station:WAVCIS:CSI06:1,2016-04-08T18:00:00Z,28.8667,-90.4833,1020.43,11111222 
WAVCIS,ioos:station:WAVCIS:CSI06:1,2016-04-08T19:00:00Z,28.8667,-90.4833,1020.22,11111222 
WAVCIS,ioos:station:WAVCIS:CSI06:1,2016-04-08T20:00:00Z,28.8667,-90.4833,1019.8,11111222 
WAVCIS,ioos:station:WAVCIS:CSI06:1,2016-04-08T21:00:00Z,28.8667,-90.4833,1019.14,11111222 
WAVCIS,ioos:station:WAVCIS:CSI06:1,2016-04-08T22:00:00Z,28.8667,-90.4833,1018.6,11111222 
WAVCIS,ioos:station:WAVCIS:CSI06:1,2016-04-08T23:00:00Z,28.8667,-90.4833,1018.89,11111222 
WAVCIS,ioos:station:WAVCIS:CSI06:1,2016-04-09T00:00:00Z,28.8667,-90.4833,1019.06,11111222 
WAVCIS,ioos:station:WAVCIS:CSI06:1,2016-04-09T01:00:00Z,28.8667,-90.4833,1019.62,11111222 
WAVCIS,ioos:station:WAVCIS:CSI06:1,2016-04-09T02:00:00Z,28.8667,-90.4833,1020.18,11111222 
WAVCIS,ioos:station:WAVCIS:CSI06:1,2016-04-09T03:00:00Z,28.8667,-90.4833,1020.91,11111222 
WAVCIS,ioos:station:WAVCIS:CSI06:1,2016-04-09T04:00:00Z,28.8667,-90.4833,1020.96,11111222 
WAVCIS,ioos:station:WAVCIS:CSI06:1,2016-04-09T05:00:00Z,28.8667,-90.4833,1020.97,11111222 
WAVCIS,ioos:station:WAVCIS:CSI06:1,2016-04-09T06:00:00Z,28.8667,-90.4833,1020.96,11111222 
WAVCIS,ioos:station:WAVCIS:CSI06:1,2016-04-09T07:00:00Z,28.8667,-90.4833,1020.39,11111222 
WAVCIS,ioos:station:WAVCIS:CSI06:1,2016-04-09T08:00:00Z,28.8667,-90.4833,1020.57,11111222 
WAVCIS,ioos:station:WAVCIS:CSI06:1,2016-04-09T09:00:00Z,28.8667,-90.4833,1020.2,11111222 
WAVCIS,ioos:station:WAVCIS:CSI06:1,2016-04-09T10:00:00Z,28.8667,-90.4833,1019.85,11111222 
WAVCIS,ioos:station:WAVCIS:CSI06:1,2016-04-09T11:00:00Z,28.8667,-90.4833,1020.64,11111222 
WAVCIS,ioos:station:WAVCIS:CSI06:1,2016-04-09T12:00:00Z,28.8667,-90.4833,1021.47,11111222 
WAVCIS,ioos:station:WAVCIS:CSI06:1,2016-04-09T13:00:00Z,28.8667,-90.4833,1022.01,11111222 
WAVCIS,ioos:station:WAVCIS:CSI06:1,2016-04-09T14:00:00Z,28.8667,-90.4833,1022.72,11111222 
WAVCIS,ioos:station:WAVCIS:CSI06:1,2016-04-09T15:00:00Z,28.8667,-90.4833,1023.8,11111222 
WAVCIS,ioos:station:WAVCIS:CSI06:1,2016-04-09T16:00:00Z,28.8667,-90.4833,1024.53,11111222 
WAVCIS,ioos:station:WAVCIS:CSI06:1,2016-04-09T17:00:00Z,28.8667,-90.4833,1024.65,11111222 
WAVCIS,ioos:station:WAVCIS:CSI06:1,2016-04-09T18:00:00Z,28.8667,-90.4833,1023.91,11111222 
WAVCIS,ioos:station:WAVCIS:CSI06:1,2016-04-09T19:00:00Z,28.8667,-90.4833,1023.14,11111222 
WAVCIS,ioos:station:WAVCIS:CSI06:1,2016-04-09T20:00:00Z,28.8667,-90.4833,1022.7,11111222 
WAVCIS,ioos:station:WAVCIS:CSI06:1,2016-04-09T21:00:00Z,28.8667,-90.4833,1021.99,11111222 
WAVCIS,ioos:station:WAVCIS:CSI06:1,2016-04-09T22:00:00Z,28.8667,-90.4833,1021.44,11111222 
WAVCIS,ioos:station:WAVCIS:CSI06:1,2016-04-09T23:00:00Z,28.8667,-90.4833,1020.7,11111222 
WAVCIS,ioos:station:WAVCIS:CSI06:1,2016-04-10T00:00:00Z,28.8667,-90.4833,1021.26,11111222 
WAVCIS,ioos:station:WAVCIS:CSI06:1,2016-04-10T01:00:00Z,28.8667,-90.4833,1021.82,11111222 
WAVCIS,ioos:station:WAVCIS:CSI06:1,2016-04-10T02:00:00Z,28.8667,-90.4833,1022.06,11111222 
WAVCIS,ioos:station:WAVCIS:CSI06:1,2016-04-10T03:00:00Z,28.8667,-90.4833,1022.58,11111222 
WAVCIS,ioos:station:WAVCIS:CSI06:1,2016-04-10T04:00:00Z,28.8667,-90.4833,1022.28,11111222 
WAVCIS,ioos:station:WAVCIS:CSI06:1,2016-04-10T05:00:00Z,28.8667,-90.4833,1021.91,11111222 
WAVCIS,ioos:station:WAVCIS:CSI06:1,2016-04-10T06:00:00Z,28.8667,-90.4833,1021.54,11111222 
WAVCIS,ioos:station:WAVCIS:CSI06:1,2016-04-10T07:00:00Z,28.8667,-90.4833,1021.05,11111222 
WAVCIS,ioos:station:WAVCIS:CSI06:1,2016-04-10T08:00:00Z,28.8667,-90.4833,1020.52,11111222 
WAVCIS,ioos:station:WAVCIS:CSI06:1,2016-04-10T09:00:00Z,28.8667,-90.4833,1020.21,11111222 
WAVCIS,ioos:station:WAVCIS:CSI06:1,2016-04-10T10:00:00Z,28.8667,-90.4833,1020.36,11111222 
WAVCIS,ioos:station:WAVCIS:CSI06:1,2016-04-10T11:00:00Z,28.8667,-90.4833,1020.75,11111222 
WAVCIS,ioos:station:WAVCIS:CSI06:1,2016-04-10T12:00:00Z,28.8667,-90.4833,1021.13,11111222 
WAVCIS,ioos:station:WAVCIS:CSI06:1,2016-04-10T13:00:00Z,28.8667,-90.4833,1021.74,11111222 
WAVCIS,ioos:station:WAVCIS:CSI06:1,2016-04-10T14:00:00Z,28.8667,-90.4833,1021.95,11111222 
WAVCIS,ioos:station:WAVCIS:CSI06:1,2016-04-10T15:00:00Z,28.8667,-90.4833,1022.32,11111222 
WAVCIS,ioos:station:WAVCIS:CSI06:1,2016-04-10T16:00:00Z,28.8667,-90.4833,1022.66,11111222 
WAVCIS,ioos:station:WAVCIS:CSI06:1,2016-04-10T17:00:00Z,28.8667,-90.4833,1022.79,11111222 
WAVCIS,ioos:station:WAVCIS:CSI06:1,2016-04-10T18:00:00Z,28.8667,-90.4833,1022.57,11111222 
WAVCIS,ioos:station:WAVCIS:CSI06:1,2016-04-10T19:00:00Z,28.8667,-90.4833,1022.38,11111222 
WAVCIS,ioos:station:WAVCIS:CSI06:1,2016-04-10T20:00:00Z,28.8667,-90.4833,1021.71,11111222 
WAVCIS,ioos:station:WAVCIS:CSI06:1,2016-04-10T21:00:00Z,28.8667,-90.4833,1020.75,11111222 
WAVCIS,ioos:station:WAVCIS:CSI06:1,2016-04-10T22:00:00Z,28.8667,-90.4833,1020.04,11111222 
WAVCIS,ioos:station:WAVCIS:CSI06:1,2016-04-10T23:00:00Z,28.8667,-90.4833,1019.77,11111222 
WAVCIS,ioos:station:WAVCIS:CSI06:1,2016-04-11T00:00:00Z,28.8667,-90.4833,1019.46,11111222 
WAVCIS,ioos:station:WAVCIS:CSI06:1,2016-04-11T01:00:00Z,28.8667,-90.4833,1019.36,11111222 
WAVCIS,ioos:station:WAVCIS:CSI06:1,2016-04-11T02:00:00Z,28.8667,-90.4833,1019.78,11111222 
WAVCIS,ioos:station:WAVCIS:CSI06:1,2016-04-11T03:00:00Z,28.8667,-90.4833,1019.73,11111222 
WAVCIS,ioos:station:WAVCIS:CSI06:1,2016-04-11T04:00:00Z,28.8667,-90.4833,1019.65,11111222 
WAVCIS,ioos:station:WAVCIS:CSI06:1,2016-04-11T05:00:00Z,28.8667,-90.4833,1019.47,11111222 
WAVCIS,ioos:station:WAVCIS:CSI06:1,2016-04-11T06:00:00Z,28.8667,-90.4833,1018.86,11111222 
WAVCIS,ioos:station:WAVCIS:CSI06:1,2016-04-11T07:00:00Z,28.8667,-90.4833,1018.22,11111222 
WAVCIS,ioos:station:WAVCIS:CSI06:1,2016-04-11T08:00:00Z,28.8667,-90.4833,1017.42,11111222 
WAVCIS,ioos:station:WAVCIS:CSI06:1,2016-04-11T09:00:00Z,28.8667,-90.4833,1017.53,11111222 
WAVCIS,ioos:station:WAVCIS:CSI06:1,2016-04-11T10:00:00Z,28.8667,-90.4833,1018.2,11111222 
WAVCIS,ioos:station:WAVCIS:CSI06:1,2016-04-11T11:00:00Z,28.8667,-90.4833,1018.84,11111222 
WAVCIS,ioos:station:WAVCIS:CSI06:1,2016-04-11T12:00:00Z,28.8667,-90.4833,1019.39,11111222 
WAVCIS,ioos:station:WAVCIS:CSI06:1,2016-04-11T13:00:00Z,28.8667,-90.4833,1020.32,11111222 
WAVCIS,ioos:station:WAVCIS:CSI06:1,2016-04-11T14:00:00Z,28.8667,-90.4833,1020.43,11111222 
WAVCIS,ioos:station:WAVCIS:CSI06:1,2016-04-11T15:00:00Z,28.8667,-90.4833,1019.15,11111222 
WAVCIS,ioos:station:WAVCIS:CSI06:1,2016-04-11T16:00:00Z,28.8667,-90.4833,1017.61,11111222 
WAVCIS,ioos:station:WAVCIS:CSI06:1,2016-04-11T17:00:00Z,28.8667,-90.4833,1019.62,11111222 
WAVCIS,ioos:station:WAVCIS:CSI06:1,2016-04-11T18:00:00Z,28.8667,-90.4833,1018.28,11111222 
WAVCIS,ioos:station:WAVCIS:CSI06:1,2016-04-11T19:00:00Z,28.8667,-90.4833,1017.4,11111222 
WAVCIS,ioos:station:WAVCIS:CSI06:1,2016-04-11T20:00:00Z,28.8667,-90.4833,1017.42,11111222 
WAVCIS,ioos:station:WAVCIS:CSI06:1,2016-04-11T21:00:00Z,28.8667,-90.4833,1017.63,11111222 
WAVCIS,ioos:station:WAVCIS:CSI06:1,2016-04-11T22:00:00Z,28.8667,-90.4833,1016.92,11111222 